| time (UTC) | temp C | wind direction | speed KPH | gust KPH | rain 1hr cm | rain 24hr cm | rain mn cm | humidity % | barometer mb |
| 20260507123007 | 16 | 97 | 3.2 | 14.5 | 0.00 | 0.00 | 0.00 | 66 | 1012.5 |
| 20260507121502 | 16 | 257 | 3.2 | 12.9 | 0.00 | 0.00 | 0.00 | 69 | 1012.4 |
| 20260507120001 | 15 | 168 | 3.2 | 12.9 | 0.00 | 0.00 | 0.00 | 70 | 1012.5 |
| 20260507114526 | 15 | 232 | 4.8 | 12.9 | 0.00 | 0.00 | 0.00 | 70 | 1012.6 |
| 20260507113026 | 15 | 142 | 3.2 | 8.0 | 0.00 | 0.00 | 0.00 | 71 | 1012.9 |
| 20260507111525 | 15 | 134 | 3.2 | 8.0 | 0.00 | 0.00 | 0.00 | 71 | 1012.9 |
| 20260507104519 | 15 | 96 | 4.8 | 14.5 | 0.00 | 0.00 | 0.00 | 67 | 1013.0 |
| 20260507103018 | 15 | 169 | 3.2 | 11.3 | 0.00 | 0.00 | 0.00 | 71 | 1013.1 |
| 20260507101517 | 16 | 165 | 3.2 | 14.5 | 0.00 | 0.00 | 0.00 | 68 | 1013.1 |
| 20260507100051 | 16 | 155 | 4.8 | 16.1 | 0.00 | 0.03 | 0.00 | 68 | 1013.1 |
| 20260507094538 | 16 | 167 | 4.8 | 12.9 | 0.00 | 0.03 | 0.00 | 72 | 1012.9 |
| 20260507093006 | 15 | 107 | 6.4 | 19.3 | 0.00 | 0.03 | 0.00 | 72 | 1012.8 |
| 20260507091501 | 15 | 98 | 4.8 | 14.5 | 0.00 | 0.03 | 0.00 | 72 | 1012.8 |
| 20260507090059 | 15 | 180 | 4.8 | 14.5 | 0.00 | 0.03 | 0.00 | 74 | 1012.8 |
| 20260507084521 | 13 | 197 | 4.8 | 8.0 | 0.00 | 0.03 | 0.00 | 75 | 1012.7 |
| 20260507083054 | 13 | 184 | 1.6 | 8.0 | 0.00 | 0.03 | 0.00 | 79 | 1012.7 |
| 20260507081551 | 12 | 110 | 1.6 | 4.8 | 0.00 | 0.03 | 0.00 | 82 | 1012.9 |
| 20260507080100 | 11 | 109 | 0.0 | 4.8 | 0.00 | 0.03 | 0.00 | 82 | 1012.9 |
| 20260507074531 | 10 | 113 | 1.6 | 6.4 | 0.00 | 0.03 | 0.00 | 79 | 1012.9 |
| 20260507073028 | 10 | 128 | 1.6 | 4.8 | 0.00 | 0.03 | 0.00 | 81 | 1013.0 |
| 20260507071523 | 10 | 123 | 0.0 | 4.8 | 0.00 | 0.03 | 0.00 | 83 | 1012.9 |
| 20260507070058 | 8 | 110 | 1.6 | 4.8 | 0.00 | 0.03 | 0.00 | 88 | 1012.9 |
| 20260507064511 | 8 | 59 | 0.0 | 4.8 | 0.00 | 0.05 | 0.00 | 91 | 1012.9 |
| 20260507063007 | 7 | 58 | 0.0 | 4.8 | 0.00 | 0.05 | 0.00 | 91 | 1012.9 |
| 20260507061505 | 7 | 58 | 0.0 | 4.8 | 0.00 | 0.05 | 0.00 | 92 | 1012.8 |
| 20260507060100 | 7 | 58 | 1.6 | 4.8 | 0.00 | 0.05 | 0.00 | 92 | 1012.7 |
| 20260507054534 | 6 | 163 | 0.0 | 1.6 | 0.00 | 0.15 | 0.00 | 92 | 1012.6 |
| 20260507053059 | 6 | 280 | 1.6 | 3.2 | 0.00 | 0.15 | 0.00 | 92 | 1012.6 |
| 20260507051555 | 6 | 355 | 0.0 | 4.8 | 0.00 | 0.15 | 0.00 | 92 | 1012.3 |
| 20260507050050 | 6 | 59 | 0.0 | 1.6 | 0.00 | 0.51 | 0.00 | 92 | 1012.2 |
| 20260507044512 | 6 | 59 | 0.0 | 3.2 | 0.00 | 0.51 | 0.00 | 92 | 1012.1 |
| 20260507043008 | 6 | 57 | 1.6 | 4.8 | 0.00 | 0.51 | 0.00 | 92 | 1011.9 |
| 20260507041601 | 6 | 57 | 1.6 | 4.8 | 0.00 | 0.51 | 0.00 | 92 | 1011.7 |
| 20260507034600 | 6 | 56 | 0.0 | 6.4 | 0.00 | 0.69 | 0.00 | 92 | 1011.6 |
| 20260507033053 | 6 | 50 | 3.2 | 8.0 | 0.00 | 0.69 | 0.00 | 92 | 1011.4 |
| 20260507031548 | 6 | 60 | 0.0 | 6.4 | 0.00 | 0.69 | 0.00 | 92 | 1011.4 |
| 20260507030047 | 6 | 61 | 1.6 | 4.8 | 0.00 | 0.69 | 0.00 | 92 | 1011.3 |
| 20260507024518 | 6 | 45 | 0.0 | 3.2 | 0.00 | 0.69 | 0.00 | 92 | 1011.3 |
| 20260507023016 | 6 | 46 | 3.2 | 8.0 | 0.00 | 0.69 | 0.00 | 92 | 1011.4 |
| 20260507021516 | 6 | 24 | 0.0 | 1.6 | 0.00 | 0.69 | 0.00 | 92 | 1011.5 |
| 20260507020108 | 6 | 24 | 0.0 | 4.8 | 0.00 | 0.69 | 0.00 | 92 | 1011.5 |
| 20260507014541 | 6 | 44 | 0.0 | 0.0 | 0.00 | 0.69 | 0.00 | 92 | 1011.3 |
| 20260507013043 | 6 | 45 | 0.0 | 4.8 | 0.00 | 0.69 | 0.00 | 91 | 1011.2 |
| 20260507011532 | 6 | 30 | 0.0 | 6.4 | 0.00 | 0.69 | 0.00 | 91 | 1011.1 |
| 20260507010034 | 7 | 62 | 1.6 | 4.8 | 0.00 | 0.71 | 0.00 | 91 | 1011.2 |
| 20260507004528 | 7 | 61 | 0.0 | 1.6 | 0.00 | 0.71 | 0.00 | 91 | 1011.0 |
| 20260507003031 | 7 | 61 | 0.0 | 3.2 | 0.00 | 0.71 | 0.00 | 91 | 1010.9 |
| 20260507001522 | 7 | 58 | 0.0 | 4.8 | 0.00 | 0.71 | 0.00 | 91 | 1010.7 |
| 20260507000022 | 7 | 63 | 0.0 | 3.2 | 0.00 | 0.71 | 0.00 | 91 | 1010.6 |
| 20260506234519 | 7 | 63 | 0.0 | 6.4 | 0.00 | 0.71 | 0.00 | 91 | 1010.7 |
| 20260506233015 | 7 | 47 | 1.6 | 4.8 | 0.00 | 0.71 | 0.00 | 91 | 1010.6 |
| 20260506231513 | 8 | 46 | 1.6 | 6.4 | 0.00 | 0.71 | 0.00 | 91 | 1010.6 |
| 20260506230011 | 8 | 53 | 1.6 | 6.4 | 0.00 | 0.71 | 0.00 | 90 | 1010.6 |
| 20260506224509 | 8 | 45 | 0.0 | 6.4 | 0.00 | 0.71 | 0.00 | 90 | 1010.5 |
| 20260506223005 | 8 | 53 | 0.0 | 6.4 | 0.00 | 0.71 | 0.00 | 90 | 1010.5 |
| 20260506221500 | 8 | 53 | 0.0 | 3.2 | 0.00 | 0.71 | 0.00 | 90 | 1010.3 |
| 20260506220100 | 9 | 53 | 1.6 | 4.8 | 0.00 | 0.71 | 0.00 | 89 | 1010.1 |
| 20260506214556 | 9 | 49 | 0.0 | 3.2 | 0.00 | 0.71 | 0.71 | 90 | 1010.0 |
| 20260506213111 | 10 | 47 | 3.2 | 6.4 | 0.00 | 0.71 | 0.71 | 90 | 1010.0 |
| 20260506211549 | 10 | 63 | 0.0 | 6.4 | 0.00 | 0.71 | 0.71 | 89 | 1009.9 |
| 20260506210049 | 10 | 55 | 3.2 | 4.8 | 0.00 | 0.71 | 0.71 | 89 | 1009.8 |
| 20260506204547 | 10 | 59 | 0.0 | 4.8 | 0.00 | 0.71 | 0.71 | 89 | 1009.7 |
| 20260506203047 | 11 | 57 | 0.0 | 4.8 | 0.00 | 0.71 | 0.71 | 89 | 1009.5 |
| 20260506201543 | 11 | 56 | 1.6 | 4.8 | 0.00 | 0.71 | 0.71 | 88 | 1009.2 |
| 20260506200043 | 11 | 55 | 0.0 | 6.4 | 0.00 | 0.71 | 0.71 | 87 | 1008.9 |
| 20260506194546 | 12 | 73 | 1.6 | 4.8 | 0.00 | 0.71 | 0.71 | 87 | 1008.5 |
| 20260506193042 | 12 | 52 | 0.0 | 6.4 | 0.00 | 0.71 | 0.71 | 87 | 1008.1 |
| 20260506191541 | 12 | 80 | 1.6 | 6.4 | 0.00 | 0.71 | 0.71 | 86 | 1007.8 |
| 20260506190038 | 13 | 157 | 0.0 | 6.4 | 0.00 | 0.71 | 0.71 | 85 | 1007.4 |
| 20260506184547 | 13 | 180 | 3.2 | 6.4 | 0.00 | 0.71 | 0.71 | 83 | 1007.0 |
| 20260506183051 | 13 | 133 | 0.0 | 4.8 | 0.00 | 0.71 | 0.71 | 82 | 1006.7 |
| 20260506181512 | 14 | 159 | 0.0 | 8.0 | 0.00 | 0.71 | 0.71 | 78 | 1006.3 |
| 20260506180005 | 15 | 74 | 1.6 | 3.2 | 0.00 | 0.71 | 0.71 | 80 | 1005.9 |
| 20260506174502 | 15 | 60 | 1.6 | 4.8 | 0.00 | 0.71 | 0.71 | 78 | 1005.7 |
| 20260506173002 | 16 | 288 | 1.6 | 4.8 | 0.00 | 0.71 | 0.71 | 73 | 1005.6 |
| 20260506171605 | 16 | 223 | 0.0 | 3.2 | 0.00 | 0.71 | 0.71 | 71 | 1005.5 |
| 20260506170100 | 16 | 233 | 4.8 | 11.3 | 0.00 | 0.71 | 0.71 | 71 | 1005.5 |
| 20260506164613 | 17 | 248 | 6.4 | 12.9 | 0.00 | 0.71 | 0.71 | 68 | 1005.3 |
| 20260506163058 | 17 | 143 | 1.6 | 9.7 | 0.00 | 0.71 | 0.71 | 67 | 1005.2 |
| 20260506161555 | 17 | 211 | 1.6 | 6.4 | 0.00 | 0.71 | 0.71 | 71 | 1005.3 |
| 20260506160100 | 16 | 118 | 0.0 | 6.4 | 0.00 | 0.71 | 0.71 | 68 | 1005.4 |
| 20260506154555 | 16 | 146 | 1.6 | 11.3 | 0.00 | 0.71 | 0.71 | 71 | 1005.4 |
| 20260506153110 | 16 | 101 | 3.2 | 11.3 | 0.00 | 0.71 | 0.71 | 71 | 1005.4 |
| 20260506151551 | 16 | 58 | 3.2 | 9.7 | 0.00 | 0.71 | 0.71 | 71 | 1005.6 |
| 20260506150058 | 17 | 132 | 1.6 | 9.7 | 0.00 | 0.71 | 0.71 | 65 | 1005.4 |
| 20260506144619 | 17 | 115 | 4.8 | 12.9 | 0.00 | 0.71 | 0.71 | 68 | 1005.5 |
| 20260506143022 | 17 | 155 | 6.4 | 16.1 | 0.00 | 0.71 | 0.71 | 67 | 1005.4 |
| 20260506141514 | 18 | 107 | 8.0 | 14.5 | 0.00 | 0.71 | 0.71 | 69 | 1005.5 |
| 20260506140016 | 17 | 132 | 3.2 | 12.9 | 0.00 | 0.71 | 0.71 | 67 | 1005.6 |
| 20260506134511 | 17 | 109 | 3.2 | 11.3 | 0.00 | 0.71 | 0.71 | 70 | 1005.9 |
| 20260506133012 | 18 | 180 | 4.8 | 11.3 | 0.00 | 0.71 | 0.71 | 68 | 1006.0 |
| 20260506131546 | 17 | 118 | 3.2 | 19.3 | 0.00 | 0.71 | 0.71 | 71 | 1006.0 |
| 20260506130037 | 16 | 238 | 4.8 | 16.1 | 0.00 | 0.71 | 0.71 | 73 | 1005.9 |
| 20260506124534 | 17 | 224 | 4.8 | 11.3 | 0.00 | 0.71 | 0.71 | 73 | 1005.9 |